ABR8TB DNMM-HTDA

Flight info

Callsign ABR8TB
Flight time N/A
Altitude 37000
Route BOTBO1Q BOTBO UR984 NLY UL434 MOROS/N0452F390 UL434 KGI UB531 MV UW305 ITGOP DULVA1A
Aircraft E190/M-SDE1E2E3FGHIJ3J4J7P2RWXY/LB1D1G1

Departure

Time N/A
Airport Murtala Muhammed International Airport (DNMM)

Arrival

Time 2026-04-12 02:48
Airport Julius Nyerere International Airport (HTDA)
Time Latitude Longitude Altitude Speed Heading
2026-04-12 02:48 -6.87434 39.20164 189 ft 0 kts 90°
2026-04-12 02:58 -6.87435 39.20165 189 ft 0 kts 100°
2026-04-12 02:59 -6.87436 39.20167 189 ft 0 kts 137°
2026-04-12 02:59 -6.87450 39.20170 189 ft 3 kts 171°
2026-04-12 02:59 -6.87479 39.20179 189 ft 5 kts 134°
2026-04-12 02:59 -6.87485 39.20220 189 ft 6 kts 91°
2026-04-12 03:00 -6.87487 39.20270 189 ft 7 kts 92°
2026-04-12 03:00 -6.87488 39.20329 189 ft 8 kts 79°
2026-04-12 03:00 -6.87448 39.20383 189 ft 10 kts 48°
2026-04-12 03:00 -6.87396 39.20438 189 ft 11 kts 46°
2026-04-12 03:01 -6.87337 39.20498 189 ft 12 kts 45°
2026-04-12 03:01 -6.87271 39.20564 189 ft 13 kts 45°
2026-04-12 03:01 -6.87201 39.20638 189 ft 15 kts 46°
2026-04-12 03:01 -6.87123 39.20712 189 ft 15 kts 44°
2026-04-12 03:02 -6.87041 39.20793 189 ft 17 kts 45°
2026-04-12 03:02 -6.86955 39.20880 189 ft 18 kts 45°
2026-04-12 03:02 -6.86864 39.20972 189 ft 19 kts 45°
2026-04-12 03:02 -6.86766 39.21070 189 ft 20 kts 46°
2026-04-12 03:03 -6.86665 39.21175 189 ft 21 kts 46°
2026-04-12 03:03 -6.86559 39.21284 189 ft 22 kts 46°
2026-04-12 03:03 -6.86450 39.21398 189 ft 23 kts 45°
2026-04-12 03:03 -6.86341 39.21521 188 ft 23 kts 64°
2026-04-12 03:04 -6.86356 39.21669 188 ft 22 kts 155°
2026-04-12 03:04 -6.86476 39.21598 189 ft 22 kts 224°
2026-04-12 03:04 -6.86744 39.21332 189 ft 90 kts 225°
2026-04-12 03:04 -6.87346 39.20732 193 ft 147 kts 224°
2026-04-12 03:05 -6.88105 39.19938 604 ft 162 kts 226°
2026-04-12 03:05 -6.88879 39.19218 1523 ft 143 kts 201°
2026-04-12 03:05 -6.89882 39.19050 2024 ft 162 kts 181°
2026-04-12 03:05 -6.91133 39.18994 2375 ft 196 kts 182°
2026-04-12 03:06 -6.92569 39.18898 2976 ft 216 kts 183°
2026-04-12 03:06 -6.94159 39.18771 3532 ft 242 kts 183°
2026-04-12 03:06 -6.95913 39.18614 4181 ft 263 kts 183°
2026-04-12 03:06 -6.97745 39.18442 5119 ft 270 kts 183°
2026-04-12 03:07 -6.99606 39.18263 6163 ft 271 kts 183°
2026-04-12 03:07 -7.01502 39.18079 7128 ft 274 kts 182°
2026-04-12 03:07 -7.03418 39.17892 7982 ft 280 kts 183°
2026-04-12 03:07 -7.05354 39.17703 8771 ft 287 kts 183°
2026-04-12 03:08 -7.07365 39.17504 9555 ft 294 kts 183°
2026-04-12 03:08 -7.09422 39.17303 10366 ft 298 kts 183°
2026-04-12 03:08 -7.11493 39.17099 11125 ft 303 kts 183°
2026-04-12 03:08 -7.13641 39.16888 11770 ft 313 kts 183°
2026-04-12 03:09 -7.15845 39.16672 12343 ft 324 kts 183°
2026-04-12 03:09 -7.18130 39.16447 13013 ft 331 kts 183°
2026-04-12 03:09 -7.20427 39.16231 13781 ft 333 kts 181°
2026-04-12 03:09 -7.22759 39.16107 14549 ft 335 kts 180°
2026-04-12 03:10 -7.25081 39.15986 15276 ft 338 kts 180°
2026-04-12 03:10 -7.27447 39.15862 15958 ft 341 kts 181°
2026-04-12 03:10 -7.29824 39.15738 16592 ft 346 kts 181°
2026-04-12 03:10 -7.32266 39.15610 17251 ft 349 kts 181°
2026-04-12 03:11 -7.34698 39.15482 17879 ft 353 kts 181°
2026-04-12 03:11 -7.37147 39.15355 18476 ft 357 kts 181°
2026-04-12 03:11 -7.39661 39.15223 19071 ft 361 kts 182°
2026-04-12 03:11 -7.42179 39.15091 19627 ft 365 kts 182°
2026-04-12 03:12 -7.44717 39.14957 20204 ft 368 kts 182°
2026-04-12 03:12 -7.47309 39.14822 20775 ft 372 kts 183°
2026-04-12 03:12 -7.49901 39.14686 21316 ft 375 kts 183°
2026-04-12 03:12 -7.52527 39.14805 21804 ft 380 kts 166°
2026-04-12 03:13 -7.54918 39.15950 22258 ft 387 kts 143°
2026-04-12 03:13 -7.56701 39.18002 22720 ft 393 kts 120°
2026-04-12 03:13 -7.57994 39.20450 23228 ft 397 kts 119°
2026-04-12 03:13 -7.59321 39.22876 23724 ft 400 kts 120°
2026-04-12 03:14 -7.60688 39.25328 24232 ft 402 kts 120°
2026-04-12 03:14 -7.62063 39.27781 24722 ft 405 kts 120°
2026-04-12 03:14 -7.63474 39.30293 25200 ft 409 kts 120°
2026-04-12 03:14 -7.64869 39.32776 25614 ft 413 kts 119°
2026-04-12 03:15 -7.66296 39.35316 26080 ft 416 kts 119°
2026-04-12 03:15 -7.67722 39.37854 26521 ft 419 kts 119°
2026-04-12 03:15 -7.69164 39.40420 26965 ft 422 kts 118°
2026-04-12 03:15 -7.70606 39.42987 27424 ft 424 kts 118°
2026-04-12 03:16 -7.72060 39.45576 27869 ft 426 kts 118°
2026-04-12 03:16 -7.73521 39.48177 28270 ft 429 kts 118°
2026-04-12 03:16 -7.75001 39.50814 28670 ft 432 kts 118°
2026-04-12 03:16 -7.76472 39.53435 29103 ft 434 kts 118°
2026-04-12 03:17 -7.77980 39.56122 29515 ft 436 kts 118°
2026-04-12 03:17 -7.79479 39.58794 29905 ft 439 kts 118°
2026-04-12 03:17 -7.80978 39.61465 30333 ft 441 kts 118°
2026-04-12 03:17 -7.82493 39.64167 30782 ft 442 kts 118°
2026-04-12 03:18 -7.84017 39.66884 31211 ft 443 kts 118°
2026-04-12 03:18 -7.85546 39.69610 31654 ft 444 kts 118°
2026-04-12 03:18 -7.87064 39.72319 32143 ft 443 kts 118°
2026-04-12 03:18 -7.88574 39.75013 32670 ft 441 kts 118°
2026-04-12 03:19 -7.90067 39.77676 33217 ft 440 kts 118°
2026-04-12 03:19 -7.91584 39.80384 33724 ft 439 kts 118°
2026-04-12 03:19 -7.93085 39.83064 34177 ft 440 kts 119°
2026-04-12 03:19 -7.94581 39.85735 34620 ft 441 kts 118°
2026-04-12 03:20 -7.96092 39.88433 35046 ft 441 kts 119°
2026-04-12 03:20 -7.97610 39.91145 35518 ft 442 kts 119°
2026-04-12 03:20 -7.99116 39.93835 35999 ft 441 kts 119°
2026-04-12 03:20 -8.00630 39.96540 36453 ft 441 kts 119°
2026-04-12 03:21 -8.02119 39.99201 36907 ft 440 kts 119°
2026-04-12 03:21 -8.03627 40.01896 37300 ft 441 kts 119°
2026-04-12 03:21 -8.05144 40.04608 37682 ft 442 kts 119°
2026-04-12 03:21 -8.06655 40.07310 38044 ft 443 kts 119°
2026-04-12 03:22 -8.08163 40.10007 38403 ft 444 kts 119°
2026-04-12 03:22 -8.09680 40.12721 38734 ft 445 kts 119°
2026-04-12 03:22 -8.11199 40.15439 38931 ft 441 kts 119°
2026-04-12 03:22 -8.12712 40.18148 38950 ft 448 kts 119°
2026-04-12 03:23 -8.15836 40.23735 38953 ft 462 kts 120°
2026-04-12 03:23 -8.19906 40.28796 38953 ft 473 kts 139°
2026-04-12 03:24 -8.25035 40.33019 38945 ft 473 kts 141°
2026-04-12 03:24 -8.30081 40.37231 38946 ft 472 kts 141°
2026-04-12 03:25 -8.35169 40.41490 38949 ft 473 kts 141°
2026-04-12 03:25 -8.40231 40.45730 38945 ft 474 kts 141°
2026-04-12 03:26 -8.45298 40.49975 38952 ft 473 kts 141°
2026-04-12 03:26 -8.50353 40.54212 38951 ft 474 kts 141°
2026-04-12 03:27 -8.55432 40.58470 38953 ft 473 kts 141°
2026-04-12 03:27 -8.60520 40.62738 38955 ft 473 kts 140°
2026-04-12 03:28 -8.65564 40.66969 38949 ft 473 kts 140°
2026-04-12 03:28 -8.70653 40.71241 38950 ft 473 kts 140°
2026-04-12 03:29 -8.75709 40.75486 38951 ft 474 kts 141°
2026-04-12 03:29 -8.80757 40.79725 38951 ft 472 kts 141°
2026-04-12 03:30 -8.85845 40.84000 38948 ft 473 kts 141°
2026-04-12 03:30 -8.90906 40.88255 38949 ft 473 kts 141°
2026-04-12 03:31 -8.95974 40.92516 38953 ft 474 kts 140°
2026-04-12 03:31 -9.01056 40.96791 38949 ft 472 kts 140°
2026-04-12 03:32 -9.06074 41.01014 38953 ft 471 kts 140°
2026-04-12 03:32 -9.11141 41.05280 38953 ft 472 kts 140°
2026-04-12 03:33 -9.16185 41.09527 38947 ft 473 kts 140°
2026-04-12 03:33 -9.21250 41.13794 38952 ft 473 kts 140°
2026-04-12 03:34 -9.26319 41.18066 38950 ft 474 kts 140°
2026-04-12 03:34 -9.31408 41.22356 38954 ft 473 kts 140°
2026-04-12 03:35 -9.36458 41.26616 38953 ft 473 kts 140°
2026-04-12 03:35 -9.41505 41.30875 38959 ft 471 kts 140°
2026-04-12 03:36 -9.46556 41.35139 38959 ft 473 kts 140°
2026-04-12 03:36 -9.51612 41.39408 38957 ft 473 kts 140°
2026-04-12 03:37 -9.56685 41.43694 38960 ft 473 kts 140°
2026-04-12 03:37 -9.61737 41.47964 38962 ft 471 kts 140°
2026-04-12 03:38 -9.66771 41.52220 38963 ft 471 kts 140°
2026-04-12 03:38 -9.71792 41.56467 38965 ft 471 kts 140°
2026-04-12 03:39 -9.76811 41.60714 38961 ft 469 kts 139°
2026-04-12 03:39 -9.81855 41.64984 38965 ft 470 kts 139°
2026-04-12 03:40 -9.86885 41.69244 38959 ft 471 kts 139°
2026-04-12 03:40 -9.91891 41.73485 38966 ft 470 kts 139°
2026-04-12 03:41 -9.96891 41.77723 38966 ft 467 kts 139°
2026-04-12 03:41 -10.01892 41.81963 38968 ft 466 kts 139°
2026-04-12 03:42 -10.06891 41.86203 38968 ft 466 kts 139°
2026-04-12 03:42 -10.11853 41.90415 38965 ft 467 kts 139°
2026-04-12 03:43 -10.16876 41.94679 38965 ft 469 kts 139°
2026-04-12 03:43 -10.21891 41.98939 38957 ft 470 kts 139°
2026-04-12 03:44 -10.26893 42.03189 38952 ft 471 kts 139°
2026-04-12 03:44 -10.31900 42.07446 38952 ft 469 kts 139°
2026-04-12 03:45 -10.36889 42.11688 38949 ft 469 kts 139°
2026-04-12 03:45 -10.41920 42.15969 38952 ft 469 kts 139°
2026-04-12 03:46 -10.46939 42.20240 38953 ft 471 kts 139°
2026-04-12 03:46 -10.51934 42.24493 38952 ft 469 kts 139°
2026-04-12 03:47 -10.56947 42.28765 38955 ft 470 kts 139°
2026-04-12 03:47 -10.61995 42.33067 38953 ft 473 kts 139°
2026-04-12 03:48 -10.67000 42.37335 38947 ft 472 kts 139°
2026-04-12 03:48 -10.72035 42.41629 38950 ft 473 kts 139°
2026-04-12 03:49 -10.76775 42.46243 38956 ft 470 kts 132°
2026-04-12 03:49 -10.81255 42.51111 38947 ft 471 kts 132°
2026-04-12 03:50 -10.85729 42.55969 38950 ft 471 kts 132°
2026-04-12 03:50 -10.90187 42.60812 38952 ft 470 kts 132°
2026-04-12 03:51 -10.94651 42.65663 38948 ft 470 kts 132°
2026-04-12 03:51 -10.99145 42.70550 38948 ft 472 kts 132°
2026-04-12 03:52 -11.03621 42.75420 38948 ft 471 kts 132°
2026-04-12 03:52 -11.08111 42.80307 38949 ft 472 kts 132°
2026-04-12 03:53 -11.12620 42.85216 38944 ft 473 kts 132°
2026-04-12 03:53 -11.17106 42.90104 38946 ft 473 kts 131°
2026-04-12 03:54 -11.21587 42.94988 38946 ft 472 kts 132°
2026-04-12 03:54 -11.26072 42.99879 38946 ft 473 kts 131°
2026-04-12 03:55 -11.30572 43.04789 38952 ft 472 kts 131°
2026-04-12 03:55 -11.35057 43.09685 38955 ft 474 kts 132°
2026-04-12 03:56 -11.39568 43.14612 38955 ft 473 kts 132°
2026-04-12 03:56 -11.44074 43.19535 38958 ft 475 kts 132°
2026-04-12 03:57 -11.48574 43.24455 38959 ft 474 kts 132°
2026-04-12 03:57 -11.52782 43.29603 38978 ft 473 kts 122°
2026-04-12 03:58 -11.56431 43.35203 38970 ft 475 kts 122°
2026-04-12 03:58 -11.60082 43.40798 38971 ft 473 kts 122°
2026-04-12 03:59 -11.63725 43.46383 38970 ft 474 kts 122°
2026-04-12 03:59 -11.67382 43.51992 38969 ft 473 kts 122°
2026-04-12 04:00 -11.71017 43.57572 38970 ft 473 kts 123°
2026-04-12 04:00 -11.74653 43.63156 38971 ft 473 kts 123°
2026-04-12 04:01 -11.78311 43.68776 38967 ft 473 kts 122°
2026-04-12 04:01 -11.81955 43.74379 38968 ft 474 kts 122°
2026-04-12 04:02 -11.87407 43.82767 38967 ft 474 kts 123°
2026-04-12 04:03 -11.91060 43.88390 38968 ft 474 kts 123°
2026-04-12 04:03 -11.94684 43.93973 38971 ft 473 kts 123°
2026-04-12 04:04 -11.98304 43.99553 38969 ft 474 kts 122°
2026-04-12 04:04 -12.01938 44.05158 38965 ft 473 kts 122°
2026-04-12 04:05 -12.05566 44.10756 38969 ft 474 kts 123°
2026-04-12 04:05 -12.09230 44.16413 38968 ft 473 kts 123°
2026-04-12 04:06 -12.12844 44.21996 38967 ft 474 kts 123°
2026-04-12 04:06 -12.16491 44.27635 38968 ft 475 kts 123°
2026-04-12 04:07 -12.20125 44.33255 38975 ft 475 kts 123°
2026-04-12 04:07 -12.23743 44.38855 38987 ft 476 kts 123°
2026-04-12 04:08 -12.27392 44.44505 38998 ft 475 kts 123°
2026-04-12 04:08 -12.31025 44.50133 39003 ft 475 kts 123°
2026-04-12 04:09 -12.34671 44.55787 38992 ft 477 kts 123°
2026-04-12 04:09 -12.38323 44.61453 38984 ft 478 kts 123°
2026-04-12 04:10 -12.41952 44.67085 38976 ft 478 kts 123°
2026-04-12 04:10 -12.45624 44.72789 38976 ft 478 kts 123°
2026-04-12 04:11 -12.49260 44.78440 38975 ft 477 kts 123°
2026-04-12 04:11 -12.52926 44.84141 38978 ft 477 kts 123°
2026-04-12 04:12 -12.56558 44.89792 38978 ft 478 kts 123°
2026-04-12 04:12 -12.60210 44.95478 38978 ft 478 kts 123°
2026-04-12 04:13 -12.63865 45.01172 38980 ft 477 kts 123°
2026-04-12 04:13 -12.67531 45.06887 38984 ft 479 kts 123°
2026-04-12 04:14 -12.71176 45.12572 38983 ft 480 kts 123°
2026-04-12 04:14 -12.74855 45.18315 38986 ft 479 kts 123°
2026-04-12 04:15 -12.78523 45.24044 38984 ft 479 kts 123°
2026-04-12 04:15 -12.82377 45.29612 38992 ft 480 kts 131°
2026-04-12 04:16 -12.86777 45.34797 38990 ft 480 kts 131°
2026-04-12 04:16 -12.91153 45.39982 38991 ft 480 kts 131°
2026-04-12 04:17 -12.95565 45.45213 38993 ft 482 kts 131°
2026-04-12 04:17 -12.99944 45.50409 38994 ft 482 kts 131°
2026-04-12 04:18 -13.04338 45.55626 38992 ft 481 kts 131°
2026-04-12 04:18 -13.08735 45.60849 38993 ft 482 kts 131°
2026-04-12 04:19 -13.13125 45.66067 38986 ft 481 kts 130°
2026-04-12 04:19 -13.17488 45.71256 38985 ft 484 kts 130°
2026-04-12 04:20 -13.21915 45.76524 38982 ft 484 kts 130°
2026-04-12 04:20 -13.26306 45.81752 38987 ft 485 kts 130°
2026-04-12 04:21 -13.30734 45.87029 38988 ft 483 kts 131°
2026-04-12 04:21 -13.35130 45.92269 38980 ft 482 kts 131°
2026-04-12 04:22 -13.39520 45.97506 38973 ft 482 kts 131°
2026-04-12 04:22 -13.43886 46.02718 38973 ft 483 kts 131°
2026-04-12 04:23 -13.48299 46.07988 38972 ft 484 kts 131°
2026-04-12 04:23 -13.52697 46.13245 38976 ft 484 kts 131°
2026-04-12 04:24 -13.57071 46.18474 38978 ft 484 kts 131°
2026-04-12 04:24 -13.61489 46.23761 38977 ft 484 kts 131°
2026-04-12 04:25 -13.65898 46.29038 38982 ft 485 kts 131°
2026-04-12 04:25 -13.70310 46.34323 38980 ft 487 kts 131°
2026-04-12 04:26 -13.74712 46.39598 38980 ft 485 kts 131°
2026-04-12 04:26 -13.79162 46.44936 38978 ft 488 kts 131°
2026-04-12 04:27 -13.83561 46.50214 38983 ft 488 kts 131°
2026-04-12 04:27 -13.88009 46.55555 38978 ft 487 kts 131°
2026-04-12 04:28 -13.92414 46.60849 38973 ft 488 kts 131°
2026-04-12 04:28 -13.96823 46.66149 38968 ft 487 kts 130°
2026-04-12 04:29 -14.01209 46.71426 38966 ft 487 kts 131°
2026-04-12 04:29 -14.05627 46.76745 38967 ft 488 kts 130°
2026-04-12 04:30 -14.10056 46.82081 38969 ft 489 kts 130°
2026-04-12 04:30 -14.14488 46.87424 38964 ft 489 kts 131°
2026-04-12 04:31 -14.18911 46.92759 38965 ft 490 kts 131°
2026-04-12 04:31 -14.23351 46.98119 38964 ft 489 kts 130°
2026-04-12 04:32 -14.27764 47.03450 38965 ft 489 kts 131°
2026-04-12 04:32 -14.32110 47.08702 38967 ft 489 kts 131°
2026-04-12 04:33 -14.36542 47.14062 38967 ft 491 kts 131°
2026-04-12 04:33 -14.40955 47.19403 38968 ft 491 kts 131°
2026-04-12 04:34 -14.45387 47.24770 38970 ft 490 kts 131°
2026-04-12 04:34 -14.49833 47.30159 38972 ft 490 kts 131°
2026-04-12 04:35 -14.54266 47.35534 38975 ft 491 kts 131°
2026-04-12 04:35 -14.58697 47.40911 38978 ft 490 kts 131°
2026-04-12 04:36 -14.63133 47.46298 38982 ft 492 kts 131°
2026-04-12 04:36 -14.67538 47.51651 38988 ft 491 kts 131°
2026-04-12 04:37 -14.71998 47.57074 38989 ft 494 kts 131°
2026-04-12 04:37 -14.76396 47.62426 38999 ft 493 kts 131°
2026-04-12 04:38 -14.80874 47.67879 38995 ft 492 kts 131°
2026-04-12 04:38 -14.85301 47.73273 39001 ft 493 kts 131°
2026-04-12 04:39 -14.89726 47.78670 39004 ft 492 kts 131°
2026-04-12 04:39 -14.94163 47.84084 39005 ft 491 kts 131°
2026-04-12 04:40 -14.98589 47.89488 39007 ft 492 kts 131°
2026-04-12 04:40 -15.03005 47.94884 39006 ft 492 kts 131°
2026-04-12 04:41 -15.07432 48.00298 39007 ft 492 kts 131°
2026-04-12 04:41 -15.11880 48.05741 39011 ft 494 kts 131°
2026-04-12 04:42 -15.16292 48.11143 39026 ft 495 kts 131°
2026-04-12 04:42 -15.20728 48.16579 39027 ft 494 kts 131°
2026-04-12 04:43 -15.27364 48.24718 39045 ft 493 kts 131°
2026-04-12 04:43 -15.31805 48.30170 39064 ft 494 kts 131°
2026-04-12 04:44 -15.36259 48.35641 39078 ft 495 kts 131°
2026-04-12 04:44 -15.40712 48.41117 39094 ft 493 kts 132°
2026-04-12 04:45 -15.45146 48.46571 39110 ft 496 kts 131°
2026-04-12 04:45 -15.49563 48.52010 39126 ft 492 kts 132°
2026-04-12 04:46 -15.53994 48.57469 39134 ft 493 kts 131°
2026-04-12 04:46 -15.58418 48.62924 39144 ft 494 kts 132°
2026-04-12 04:47 -15.62836 48.68375 39127 ft 494 kts 131°
2026-04-12 04:47 -15.67277 48.73859 39135 ft 496 kts 131°
2026-04-12 04:48 -15.71719 48.79348 39131 ft 497 kts 131°
2026-04-12 04:48 -15.76159 48.84839 39142 ft 495 kts 131°
2026-04-12 04:49 -15.80577 48.90305 39148 ft 497 kts 131°
2026-04-12 04:49 -15.85031 48.95821 39150 ft 496 kts 131°
2026-04-12 04:50 -15.89490 49.01350 39153 ft 496 kts 132°
2026-04-12 04:50 -15.93919 49.06843 39159 ft 496 kts 131°
2026-04-12 04:51 -15.98360 49.12356 39161 ft 494 kts 131°
2026-04-12 04:51 -16.02765 49.17827 39156 ft 497 kts 132°
2026-04-12 04:52 -16.07194 49.23334 39153 ft 496 kts 132°
2026-04-12 04:52 -16.11654 49.28882 39147 ft 498 kts 132°
2026-04-12 04:53 -16.16086 49.34400 39139 ft 498 kts 132°
2026-04-12 04:54 -16.22844 49.42823 39121 ft 499 kts 132°
2026-04-12 04:54 -16.27299 49.48380 39113 ft 499 kts 132°
2026-04-12 04:55 -16.31716 49.53896 39108 ft 498 kts 132°
2026-04-12 04:55 -16.36170 49.59460 39100 ft 499 kts 132°
2026-04-12 04:56 -16.40601 49.65000 39102 ft 500 kts 132°
2026-04-12 04:56 -16.45027 49.70540 39078 ft 498 kts 132°
2026-04-12 04:57 -16.49461 49.76092 39074 ft 499 kts 132°
2026-04-12 04:57 -16.53900 49.81656 39060 ft 501 kts 132°
2026-04-12 04:58 -16.58308 49.87185 39048 ft 498 kts 132°
2026-04-12 04:58 -16.62769 49.92786 39041 ft 501 kts 132°
2026-04-12 04:59 -16.67203 49.98356 39033 ft 501 kts 132°
2026-04-12 04:59 -16.71641 50.03936 39030 ft 501 kts 132°
2026-04-12 05:00 -16.76095 50.09541 39032 ft 501 kts 133°
2026-04-12 05:00 -16.80538 50.15134 39033 ft 500 kts 132°
2026-04-12 05:01 -16.84977 50.20728 39031 ft 503 kts 133°
2026-04-12 05:01 -16.89447 50.26366 39034 ft 502 kts 132°
2026-04-12 05:02 -16.93926 50.32021 39033 ft 504 kts 133°
2026-04-12 05:02 -16.98380 50.37647 39037 ft 505 kts 133°
2026-04-12 05:03 -17.02861 50.43313 39035 ft 504 kts 133°
2026-04-12 05:03 -17.07336 50.48976 39037 ft 504 kts 133°
2026-04-12 05:04 -17.11797 50.54626 39033 ft 502 kts 133°
2026-04-12 05:04 -17.16249 50.60269 39033 ft 505 kts 133°
2026-04-12 05:05 -17.20716 50.65934 39029 ft 502 kts 133°
2026-04-12 05:05 -17.25158 50.71575 39023 ft 505 kts 133°
2026-04-12 05:06 -17.29654 50.77288 39022 ft 505 kts 133°